Погода в Плюссе

Россия / Псковская область     58°25′34″N   29°21′45″E
темп.,
°C
ветер,
м/с
пор.,
м/с
влажн.,
%
обл.,
%
осадки,
мм/ч
давл.,
гПа
погр.,
м
11 мая, вт
вт1100:00+12ю41378100 0.0 1023393
03:00+11ю41482100 0.0 1024368
06:00+10ю3118893 0.0 1024268
09:00+15ю59625 0.0 1024516
12:00+20ю57480 0.0 10241147
15:00+21ю57400 0.0 10231327
18:00+21ююв46523 0.0 10231114
21:00+14юв38790 0.0 1022139
12 мая, ср
ср1200:00+11ююв26850 0.0 1023113
03:00+9ююв28810 0.0 1023145
06:00+9юв27830 0.0 1024148
09:00+16ююв35610 0.0 1023388
12:00+21юв46510 0.0 10231081
15:00+23юв464710 0.0 10211919
18:00+19юв2767100 0.0 1020208
21:00+15в22793 0.0 101916
13 мая, чт
чт1300:00+15всв257439 0.0 1018114
03:00+12всв389059 0.0 1016172
06:00+13вюв4118896 0.0 1015612
09:00+15юв596972 0.0 10151122
12:00+18юв59465 0.0 10151622
15:00+18вюв595085 0.0 10132093
18:00+18вюв575513 0.1 10121552
21:00+12юв2486100 0.4 1012129
14 мая, пт
пт1400:00+11юв2394100 0.1 1011109
03:00+8ююв24975 0.1 101178
06:00+8ююв26930 0.0 1011169
09:00+14ююв476411 0.0 1012758
12:00+14юв486891 0.0 1012856
15:00+17юв4861100 0.1 10111470
18:00+18юв486065 0.1 10101305
21:00+13вюв267890 0.1 1010145
15 мая, сб
сб1500:00+11в398999 0.0 1009176
03:00+9в269682 0.0 1008114
06:00+10в2696100 0.1 1007201
09:00+14юв3486100 0.2 1006481
12:00+19юв246161 0.1 10051384
15:00+19ююв237397 3.2 1004903
18:00+17з128351 4.3 1004324
21:00+14зюз2494100 5.1 100484